Regional Weather Roundup
Issued by NWS Charleston, SC

Home | Current Version | Previous Version | Text Only | Print | Product List | Glossary On
Versions: 1 2 3 4 5 6 7 8 9 10 11 12 13 14 15 16 17 18 19 20 21 22 23 24 25 26 27 28 29 30 31 32 33 34 35 36 37 38 39 40 41 42 43 44 45 46 47 48 49 50
000
ASUS42 KCHS 222027
RWRCHS

Regional Weather Roundup
National Weather Service Charleston SC
400 PM EDT SUN APR 22 2018

NOTE: "fair" indicates few or no clouds below 12,000 feet with no
significant weather and/or obstructions to visibility.

Not all stations are quality controlled. Use data with caution,
especially dewpoint observations.

SCZ027-030-031-034>040-042>050-222100-
...Southeast South Carolina...

CITY           SKY/WX    TMP DP  RH WIND       PRES   REMARKS
N Charleston   PTSUNNY   74  51  44 E17G24    30.23F
Waterfront Prk NOT AVBL
Mount Pleasant FAIR      72  55  56 E8        30.24F
Johns Island   MOCLDY    70  57  64 E15       30.24F
Pinopolis        N/A     70  50  49 VRB3      30.17F
Moncks Corner  FAIR      72  45  37 SE9G18    30.24F
Summerville    CLOUDY    72  50  46 E8        30.23F
Beaufort MCAS  CLOUDY    70  55  59 E12       30.21F
Beaufort Arpt  CLOUDY    68  54  60 E10G17    30.21F
Hilton Head Is CLOUDY    68  59  73 NE8       30.22F
Walterboro     CLOUDY    70  52  52 E13G18    30.23F
Allendale      CLOUDY    68  55  64 CALM      30.20F

...Southern Midlands and Pee Dee...

CITY           SKY/WX    TMP DP  RH WIND       PRES   REMARKS
Georgetown     FAIR      70  54  56 E9        30.28F
Kingstree      FAIR      70  46  43 SE13      30.24F
Orangeburg     CLOUDY    68  50  52 SE8       30.23F
Barnwell       CLOUDY    70  52  52 E6        30.21F
Aiken          RAIN      63  57  82 NE3       30.25F
Manning        CLOUDY    66  46  48 SE5       30.25F
Columbia       CLOUDY    71  54  54 SE9       30.23F
Sumter         CLOUDY    68  51  55 S9        30.23F
Florence       CLOUDY    72  45  37 SE9       30.25F
Myrtle Beach   PTSUNNY   67  54  63 E17G24    30.30F
N Myrtle Beach CLOUDY    67  52  58 E17       30.28F

$$

GAZ063-065-086>088-099>101-113>116-118-119-134>141-150-222100-
...Southeast Georgia...

CITY           SKY/WX    TMP DP  RH WIND       PRES   REMARKS
Savannah Arpt  CLOUDY    71  54  54 E15       30.19F
Hunter AAF     FAIR      70  57  63 E14       30.17F
Fort Stewart   PTSUNNY   70  58  64 SE14      30.16F
Statesboro     DRIZZLE   67  54  63 E5        30.19F
Sylvania       CLOUDY    66  59  77 E5        30.21F
Claxton        CLOUDY    68  60  75 NE7       30.17F

...CSRA, Central and far Southeast Georgia...

CITY           SKY/WX    TMP DP  RH WIND       PRES   REMARKS
Thomson        LGT RAIN  62  60  94 SE7       30.25F
Augusta-Bush   LGT RAIN  67  59  75 CALM      30.21F
Augusta-Daniel LGT RAIN  67  58  72 E3        30.22F
Swainsboro     CLOUDY    68  59  73 E10       30.17F
Vidalia        CLOUDY    72  61  68 E12G21    30.15F
Eastman        CLOUDY    68  55  63 E12       30.14F
Hazlehurst     CLOUDY    72  60  65 E10G16    30.11F
Alma           CLOUDY    72  59  63 E13G21    30.11F
Waycross       CLOUDY    74  61  63 SE13      30.10F
Jesup          NOT AVBL
Baxley         CLOUDY    70  61  73 SE15G23   30.11F
Brunswick      CLOUDY    72  59  64 E14       30.16F
Saint Simons   CLOUDY    71  64  78 E10       30.16F

$$

SCZ027-028-034-036>038-045-046-048>050-GAZ119-141-222100-
...Lake and Supplemental Coastal Observations...

STATION/POSITION TIME  TEMP    WIND        PRES    WAVE   SWELL
                       AIR SEA DIR/SP/G            HT/PER HT/PER/DIR
                 (UTC) (F)     (DEG/KT/KT) (MB)    (FT/S) (FT/S/D)
Winyah Bay       1945   64      70/ 13     1025.0F
Lake Murray      1920   68     100/  5/  7 1023.7F
ACE Basin NERRS  1945   72     350/  5       N/A
Fort Pulaski     2000   65 65   70/ 11/ 14 1022.9
Sapelo Island    2000   71      90/  8     1022.0

$$

ANZ835-935-AMZ111-154-330-350-352-354-370-450-454-472-222100-
...C-MAN and Buoy Observations...

STATION/POSITION TIME  TEMP    WIND        PRES    WAVE   SWELL
                       AIR SEA DIR/SP/G            HT/PER HT/PER/DIR
                 (UTC) (F)     (DEG/KT/KT) (MB)    (FT/S) (FT/S/D)
Buoy 41004       2010   69 67  100/ 14/ 17 1024.0
Buoy 41008       1950   67 65   90/  8/ 10 1021.6F   4/ 7   3/120/ 7
Folly Beach CMAN 2000   65      60/ 13/ 14 1024.7F
Capers Nearshore 2008   65 64   60/ 12/ 16 1024.4F
Fripp Nearshore  2008   65 64   70/ 12/ 17 1022.5F


STATION/POSITION TIME  TEMP    WIND        PRES    WAVE   SWELL
                       AIR SEA DIR/SP/G            HT/PER HT/PER/DIR
                 (UTC) (F)     (DEG/KT/KT) (MB)    (FT/S) (FT/S/D)
5E St. Marys GA  1930      67                N/A     4/ 7
Frying Pan Buoy  2010   67 70   90/ 14/ 17 1025.6
Buoy 41025       2010   61 74   30/ 12/ 16 1028.3
Cape Lookout NC  2000           60/ 15/ 16 1027.6F
Buoy 41002       2010   67 72   80/ 10/ 14 1025.3
Buoy 41010       2010   72 76   80/ 19/ 25 1020.8
St Augustine FL  2000   70 69  100/ 11/ 12 1020.2F


$$




USA.gov is the U.S. government's official web portal to all federal, state and local government web resources and services.